NOAA 16 DEB, 42378

Orbit data source: Space-Track

NOAA 16 DEB, 42378 is space debris in SSO originally from a launch on Thu, 21 Sep 2000 UTC launched from the Air Force Western Test Range (AFWTR). Debris objects in space refer to the collection of defunct objects orbiting the Earth. Examples of debris include non-operational satellites, rocket bodies, and fragments generated from explosions, collisions, or faulty payload assembly.

Loading next visibility...
Identifier
42378, 2000-055RW
Orbit
SSO
Country
Flag of USUS
Related business
Manufacturer
Unknown
Mission
Spacecraft
Bus & Motor
Unknown
Mass
Unknown
Launch date (UTC)
2000-09-21 (25 years ago)
Launch vehicle
Unknown
Launch site
Air Force Western Test Range (AFWTR)
Object type
Payload
Rocket body
Debris
Shape & HBR
Unknown shape, 0.1 m
Radar Cross Section
Small (<0.1 m²)

Expand to show TLE details & history
Last TLE update: 2 days ago

TLE from 2 days ago
0 NOAA 16 DEB
1 42378U 00055RW  26033.33819673  .00008475  00000-0  24217-2 0  9990
2 42378  98.8598 175.8384 0020490 177.5311 182.5984 14.45232904514819
Epoch: 2026-02-02T08:07Z
TLE epoch observation values (Epoch: 2026-02-02T08:07:00.197Z)
Latitude
0.00001°
Longitude
-78.44734°
Altitude
758.781 km
Speed
7.467 km/s
True Right ascension
11h 43m 21s
True Declination
0° 00' 00"
Sunlit
Object was in full shadow at epoch
Visualization orbit readout
Latitude
Unknown
Longitude
Unknown
Altitude
Unknown
Speed
Unknown
Apparent Right ascension
Unknown
Apparent Declination
Unknown
Sunlit
N/A
Visualization observer readout
Local Sidereal Time
00:50:55
Azimuth
Unknown
Elevation
Unknown
Doppler factor
Unknown
Orbital elements
Apogee altitude
752.975 km
Perigee altitude
723.812 km
Semi-major axis
7,116.53 km
Eccentricity
0.00205
Inclination
98.8598°
RAAN
175.8384°
Arg. of periapsis
177.5311°
True anomaly
182.58778°
Mean anomaly
182.5984°
Eccentric anomaly
182.59309°
Mean motion
3.61527 °/min
Orbital period
99.58 mins
BSTAR
0.0024217
Loading maneuver chart data...
Computing Atmospheric mass density...
Loading historical data...
Loading historical data...
Loading historical data...
Loading historical data...
Loading historical data...
Loading historical data...
Loading historical data...

Documentation

Showing up to 5 results
|